| time (UTC) | temp C | wind direction | speed KPH | gust KPH | rain 1hr cm | rain 24hr cm | rain mn cm | humidity % | barometer mb |
| 20260504002601 | 11 | 204 | 0.0 | 0.0 | 0.00 | 0.00 | 0.00 | 66 | 1009.4 |
| 20260504002102 | 11 | 229 | 0.0 | 0.0 | 0.00 | 0.00 | 0.00 | 65 | 1009.6 |
| 20260504001602 | 11 | 217 | 0.0 | 1.6 | 0.00 | 0.00 | 0.00 | 64 | 1009.7 |
| 20260504001102 | 11 | 247 | 0.0 | 3.2 | 0.00 | 0.00 | 0.00 | 64 | 1009.8 |
| 20260503235601 | 11 | 234 | 0.0 | 0.0 | 0.00 | 0.00 | 0.00 | 64 | 1009.9 |
| 20260503235102 | 12 | 230 | 0.0 | 4.8 | 0.00 | 0.00 | 0.00 | 63 | 1009.8 |
| 20260503234601 | 12 | 247 | 0.0 | 4.8 | 0.00 | 0.00 | 0.00 | 62 | 1010.0 |
| 20260503234102 | 12 | 235 | 0.0 | 4.8 | 0.00 | 0.00 | 0.00 | 61 | 1010.0 |
| 20260503233603 | 12 | 223 | 0.0 | 9.7 | 0.00 | 0.00 | 0.00 | 60 | 1009.9 |
| 20260503233102 | 12 | 237 | 0.0 | 4.8 | 0.00 | 0.00 | 0.00 | 60 | 1009.8 |
| 20260503232602 | 12 | 227 | 0.0 | 9.7 | 0.00 | 0.00 | 0.00 | 60 | 1009.8 |
| 20260503231602 | 13 | 254 | 0.0 | 1.6 | 0.00 | 0.00 | 0.00 | 59 | 1009.7 |
| 20260503231103 | 13 | 229 | 0.0 | 11.3 | 0.00 | 0.00 | 0.00 | 58 | 1009.9 |
| 20260503225103 | 15 | 227 | 0.0 | 4.8 | 0.00 | 0.00 | 0.00 | 43 | 1009.3 |
| 20260503224102 | 15 | 217 | 0.0 | 9.7 | 0.00 | 0.00 | 0.00 | 43 | 1009.3 |
| 20260503223602 | 15 | 224 | 0.0 | 9.7 | 0.00 | 0.00 | 0.00 | 42 | 1009.4 |
| 20260503222602 | 15 | 236 | 0.0 | 3.2 | 0.00 | 0.00 | 0.00 | 41 | 1009.4 |
| 20260503222102 | 15 | 229 | 0.0 | 3.2 | 0.00 | 0.00 | 0.00 | 41 | 1009.4 |
| 20260503221602 | 15 | 238 | 0.0 | 8.0 | 0.00 | 0.00 | 0.00 | 44 | 1009.5 |
| 20260503221102 | 15 | 236 | 0.0 | 4.8 | 0.00 | 0.00 | 0.00 | 43 | 1009.4 |
| 20260503220602 | 15 | 240 | 0.0 | 3.2 | 0.00 | 0.00 | 0.00 | 43 | 1009.4 |
| 20260503215603 | 15 | 224 | 0.0 | 8.0 | 0.00 | 0.00 | 0.00 | 43 | 1009.4 |
| 20260503215102 | 15 | 210 | 0.0 | 4.8 | 0.00 | 0.00 | 0.00 | 43 | 1009.4 |
| 20260503214602 | 15 | 264 | 0.0 | 3.2 | 0.00 | 0.00 | 0.00 | 42 | 1009.4 |
| 20260503214102 | 15 | 220 | 0.0 | 4.8 | 0.00 | 0.00 | 0.00 | 43 | 1009.5 |
| 20260503213602 | 15 | 220 | 1.6 | 12.9 | 0.00 | 0.00 | 0.00 | 42 | 1009.6 |
| 20260503212602 | 15 | 227 | 1.6 | 4.8 | 0.00 | 0.00 | 0.00 | 41 | 1009.7 |
| 20260503212102 | 15 | 241 | 3.2 | 14.5 | 0.00 | 0.00 | 0.00 | 41 | 1009.6 |
| 20260503211102 | 15 | 246 | 1.6 | 9.7 | 0.00 | 0.00 | 0.00 | 41 | 1009.8 |
| 20260503210603 | 16 | 231 | 3.2 | 19.3 | 0.00 | 0.00 | 0.00 | 41 | 1009.8 |
| 20260503205602 | 16 | 247 | 1.6 | 11.3 | 0.00 | 0.00 | 0.00 | 41 | 1009.7 |
| 20260503204103 | 15 | 226 | 0.0 | 8.0 | 0.00 | 0.00 | 0.00 | 42 | 1010.0 |
| 20260503203602 | 16 | 238 | 1.6 | 12.9 | 0.00 | 0.00 | 0.00 | 40 | 1010.0 |
| 20260503203103 | 16 | 242 | 0.0 | 19.3 | 0.00 | 0.00 | 0.00 | 42 | 1010.0 |
| 20260503202602 | 16 | 239 | 0.0 | 3.2 | 0.00 | 0.00 | 0.00 | 41 | 1010.1 |
| 20260503202102 | 16 | 227 | 0.0 | 9.7 | 0.00 | 0.00 | 0.00 | 40 | 1010.1 |
| 20260503201102 | 16 | 248 | 0.0 | 1.6 | 0.00 | 0.00 | 0.00 | 40 | 1010.1 |
| 20260503200602 | 16 | 216 | 0.0 | 3.2 | 0.00 | 0.00 | 0.00 | 40 | 1010.2 |
| 20260503195602 | 16 | 234 | 0.0 | 16.1 | 0.00 | 0.00 | 0.00 | 40 | 1010.4 |
| 20260503195102 | 16 | 227 | 0.0 | 1.6 | 0.00 | 0.00 | 0.00 | 39 | 1010.4 |
| 20260503194602 | 16 | 241 | 0.0 | 1.6 | 0.00 | 0.00 | 0.00 | 40 | 1010.4 |
| 20260503194103 | 16 | 235 | 0.0 | 0.0 | 0.00 | 0.00 | 0.00 | 41 | 1010.5 |
| 20260503193602 | 16 | 228 | 0.0 | 3.2 | 0.00 | 0.00 | 0.00 | 40 | 1010.5 |
| 20260503193103 | 16 | 280 | 0.0 | 1.6 | 0.00 | 0.00 | 0.00 | 39 | 1010.7 |
| 20260503192602 | 16 | 243 | 0.0 | 4.8 | 0.00 | 0.00 | 0.00 | 39 | 1010.7 |
| 20260503192103 | 16 | 240 | 1.6 | 9.7 | 0.00 | 0.00 | 0.00 | 39 | 1010.9 |
| 20260503191102 | 16 | 202 | 0.0 | 0.0 | 0.00 | 0.00 | 0.00 | 40 | 1011.1 |
| 20260503185603 | 16 | 241 | 0.0 | 4.8 | 0.00 | 0.00 | 0.00 | 39 | 1011.3 |
| 20260503185102 | 16 | 220 | 0.0 | 9.7 | 0.00 | 0.00 | 0.00 | 40 | 1011.3 |
| 20260503184603 | 16 | 229 | 0.0 | 4.8 | 0.00 | 0.00 | 0.00 | 37 | 1011.4 |
| 20260503184102 | 16 | 264 | 0.0 | 0.0 | 0.00 | 0.00 | 0.00 | 41 | 1011.4 |
| 20260503183603 | 16 | 262 | 0.0 | 4.8 | 0.00 | 0.00 | 0.00 | 37 | 1011.3 |
| 20260503183102 | 16 | 231 | 0.0 | 4.8 | 0.00 | 0.00 | 0.00 | 39 | 1011.4 |
| 20260503182602 | 16 | 215 | 0.0 | 1.6 | 0.00 | 0.00 | 0.00 | 41 | 1011.6 |
| 20260503181603 | 16 | 250 | 0.0 | 3.2 | 0.00 | 0.00 | 0.00 | 38 | 1011.7 |
| 20260503181102 | 16 | 254 | 0.0 | 4.8 | 0.00 | 0.00 | 0.00 | 39 | 1011.9 |
| 20260503180603 | 16 | 233 | 0.0 | 0.0 | 0.00 | 0.00 | 0.00 | 41 | 1011.7 |
| 20260503175602 | 16 | 230 | 0.0 | 1.6 | 0.00 | 0.03 | 0.00 | 41 | 1011.7 |
| 20260503174602 | 16 | 235 | 0.0 | 3.2 | 0.00 | 0.03 | 0.00 | 42 | 1011.9 |
| 20260503173602 | 16 | 214 | 0.0 | 8.0 | 0.00 | 0.03 | 0.00 | 40 | 1012.0 |
| 20260503173103 | 16 | 258 | 0.0 | 0.0 | 0.00 | 0.03 | 0.00 | 41 | 1012.0 |
| 20260503172602 | 15 | 225 | 0.0 | 3.2 | 0.00 | 0.03 | 0.00 | 43 | 1012.1 |
| 20260503171602 | 15 | 272 | 0.0 | 3.2 | 0.00 | 0.03 | 0.00 | 41 | 1012.2 |
| 20260503171103 | 16 | 249 | 0.0 | 3.2 | 0.00 | 0.03 | 0.00 | 40 | 1012.3 |
| 20260503170602 | 15 | 231 | 0.0 | 1.6 | 0.00 | 0.03 | 0.00 | 41 | 1012.4 |
| 20260503150603 | 12 | 270 | 0.0 | 0.0 | 0.00 | 0.05 | 0.00 | 53 | 1013.7 |
| 20260503131103 | 8 | 229 | 0.0 | 3.2 | 0.00 | 0.05 | 0.00 | 62 | 1013.9 |
| 20260503130603 | 8 | 205 | 0.0 | 4.8 | 0.00 | 0.05 | 0.00 | 63 | 1014.0 |
| 20260503130103 | 8 | 222 | 1.6 | 8.0 | 0.00 | 0.05 | 0.00 | 63 | 1014.0 |
| 20260503110603 | 2 | 206 | 0.0 | 0.0 | 0.00 | 0.05 | 0.00 | 83 | 1013.8 |
| 20260503081603 | 2 | 217 | 0.0 | 0.0 | 0.00 | 0.05 | 0.00 | 81 | 1013.8 |
| 20260503081103 | 2 | 222 | 0.0 | 0.0 | 0.00 | 0.05 | 0.00 | 81 | 1013.8 |
| 20260503080605 | 2 | 222 | 0.0 | 0.0 | 0.00 | 0.05 | 0.00 | 81 | 1013.7 |
| 20260503080104 | 2 | 221 | 0.0 | 0.0 | 0.00 | 0.05 | 0.00 | 80 | 1013.8 |
| 20260503072603 | 3 | 229 | 0.0 | 0.0 | 0.00 | 0.05 | 0.00 | 80 | 1014.0 |
| 20260503072104 | 3 | 229 | 0.0 | 0.0 | 0.00 | 0.05 | 0.00 | 79 | 1014.0 |
| 20260503071603 | 3 | 230 | 0.0 | 0.0 | 0.00 | 0.05 | 0.00 | 79 | 1014.0 |
| 20260503071103 | 3 | 230 | 0.0 | 0.0 | 0.00 | 0.05 | 0.00 | 79 | 1013.9 |
| 20260503070104 | 3 | 230 | 0.0 | 0.0 | 0.00 | 0.05 | 0.00 | 79 | 1013.9 |
| 20260503060105 | 4 | 230 | 0.0 | 0.0 | 0.00 | 0.05 | 0.00 | 76 | 1014.3 |
| 20260503055103 | 4 | 230 | 0.0 | 0.0 | 0.00 | 0.05 | 0.00 | 76 | 1014.2 |
| 20260503053103 | 4 | 230 | 0.0 | 0.0 | 0.00 | 0.05 | 0.00 | 76 | 1014.3 |
| 20260503052604 | 5 | 230 | 0.0 | 0.0 | 0.00 | 0.05 | 0.00 | 75 | 1014.3 |
| 20260503052103 | 5 | 230 | 0.0 | 0.0 | 0.00 | 0.05 | 0.00 | 75 | 1014.3 |
| 20260503051604 | 5 | 230 | 0.0 | 0.0 | 0.00 | 0.05 | 0.00 | 75 | 1014.5 |
| 20260503051103 | 5 | 230 | 0.0 | 0.0 | 0.00 | 0.05 | 0.00 | 75 | 1014.5 |
| 20260503050603 | 5 | 230 | 0.0 | 0.0 | 0.00 | 0.05 | 0.00 | 75 | 1014.4 |
| 20260503050049 | 5 | 230 | 0.0 | 0.0 | 0.00 | 0.05 | 0.00 | 74 | 1014.5 |
| 20260503045548 | 5 | 230 | 0.0 | 0.0 | 0.00 | 0.05 | 0.00 | 74 | 1014.5 |
| 20260503045049 | 5 | 230 | 0.0 | 0.0 | 0.00 | 0.05 | 0.00 | 74 | 1014.5 |
| 20260503044549 | 5 | 230 | 0.0 | 0.0 | 0.00 | 0.08 | 0.00 | 73 | 1014.5 |
| 20260503043549 | 5 | 230 | 0.0 | 0.0 | 0.00 | 0.08 | 0.00 | 73 | 1014.3 |
| 20260503043050 | 5 | 230 | 0.0 | 0.0 | 0.00 | 0.08 | 0.00 | 72 | 1014.3 |
| 20260503042549 | 5 | 230 | 0.0 | 0.0 | 0.00 | 0.08 | 0.00 | 72 | 1014.3 |
| 20260503042049 | 5 | 230 | 0.0 | 0.0 | 0.00 | 0.08 | 0.00 | 72 | 1014.4 |
| 20260503041549 | 6 | 230 | 0.0 | 0.0 | 0.00 | 0.08 | 0.00 | 72 | 1014.4 |
| 20260503040549 | 6 | 230 | 0.0 | 0.0 | 0.00 | 0.08 | 0.00 | 72 | 1014.3 |
| 20260503040049 | 6 | 230 | 0.0 | 0.0 | 0.00 | 0.08 | 0.00 | 71 | 1014.3 |
| 20260503035549 | 6 | 232 | 0.0 | 0.0 | 0.00 | 0.08 | 0.08 | 71 | 1014.4 |
| 20260503035048 | 6 | 232 | 0.0 | 0.0 | 0.00 | 0.08 | 0.08 | 71 | 1014.3 |
| 20260503034549 | 6 | 232 | 0.0 | 0.0 | 0.00 | 0.08 | 0.08 | 71 | 1014.4 |
| 20260503034049 | 6 | 232 | 0.0 | 0.0 | 0.00 | 0.08 | 0.08 | 71 | 1014.4 |
| 20260503033549 | 6 | 232 | 0.0 | 0.0 | 0.00 | 0.08 | 0.08 | 71 | 1014.4 |
| 20260503033049 | 6 | 232 | 0.0 | 0.0 | 0.00 | 0.08 | 0.08 | 71 | 1014.4 |
| 20260503032550 | 6 | 232 | 0.0 | 0.0 | 0.00 | 0.08 | 0.08 | 71 | 1014.3 |
| 20260503031549 | 6 | 232 | 0.0 | 0.0 | 0.00 | 0.08 | 0.08 | 71 | 1014.4 |
| 20260503031048 | 6 | 232 | 0.0 | 0.0 | 0.00 | 0.08 | 0.08 | 71 | 1014.5 |
| 20260503030049 | 6 | 292 | 0.0 | 0.0 | 0.00 | 0.08 | 0.08 | 70 | 1014.5 |
| 20260503025549 | 6 | 292 | 0.0 | 0.0 | 0.00 | 0.08 | 0.08 | 70 | 1014.6 |
| 20260503024549 | 6 | 292 | 0.0 | 0.0 | 0.00 | 0.08 | 0.08 | 70 | 1014.7 |
| 20260503024049 | 6 | 292 | 0.0 | 0.0 | 0.00 | 0.08 | 0.08 | 70 | 1014.7 |
| 20260503023549 | 6 | 292 | 0.0 | 0.0 | 0.00 | 0.08 | 0.08 | 70 | 1014.6 |
| 20260503023049 | 6 | 292 | 0.0 | 0.0 | 0.00 | 0.08 | 0.08 | 69 | 1014.6 |
| 20260503022049 | 6 | 292 | 0.0 | 0.0 | 0.00 | 0.08 | 0.08 | 69 | 1014.7 |
| 20260503021549 | 6 | 292 | 0.0 | 0.0 | 0.00 | 0.08 | 0.08 | 68 | 1014.7 |
| 20260503021049 | 6 | 292 | 0.0 | 0.0 | 0.00 | 0.08 | 0.08 | 67 | 1014.5 |
| 20260503020549 | 7 | 292 | 0.0 | 0.0 | 0.00 | 0.08 | 0.08 | 68 | 1014.6 |
| 20260503020049 | 7 | 292 | 0.0 | 0.0 | 0.00 | 0.08 | 0.08 | 67 | 1014.6 |
| 20260503015549 | 7 | 292 | 0.0 | 0.0 | 0.00 | 0.08 | 0.08 | 66 | 1014.6 |
| 20260503015049 | 7 | 292 | 0.0 | 0.0 | 0.00 | 0.08 | 0.08 | 66 | 1014.6 |
| 20260503014049 | 7 | 292 | 0.0 | 0.0 | 0.00 | 0.08 | 0.08 | 65 | 1014.5 |
| 20260503013049 | 7 | 292 | 0.0 | 0.0 | 0.00 | 0.08 | 0.08 | 64 | 1014.6 |
| 20260503012550 | 7 | 292 | 0.0 | 0.0 | 0.00 | 0.08 | 0.08 | 63 | 1014.6 |
| 20260503012049 | 7 | 292 | 0.0 | 0.0 | 0.00 | 0.08 | 0.08 | 62 | 1014.5 |
| 20260503011549 | 7 | 292 | 0.0 | 0.0 | 0.00 | 0.08 | 0.08 | 62 | 1014.5 |
| 20260503011050 | 7 | 292 | 0.0 | 0.0 | 0.00 | 0.08 | 0.08 | 62 | 1014.5 |
| 20260503010549 | 7 | 292 | 0.0 | 0.0 | 0.00 | 0.08 | 0.08 | 61 | 1014.5 |
| 20260503010049 | 7 | 292 | 0.0 | 0.0 | 0.00 | 0.08 | 0.08 | 60 | 1014.4 |
| 20260503005549 | 7 | 292 | 0.0 | 0.0 | 0.00 | 0.08 | 0.08 | 59 | 1014.4 |
| 20260503005049 | 7 | 292 | 0.0 | 0.0 | 0.00 | 0.08 | 0.08 | 60 | 1014.3 |
| 20260503004550 | 7 | 292 | 0.0 | 0.0 | 0.00 | 0.08 | 0.08 | 60 | 1014.3 |
| 20260503003049 | 7 | 292 | 0.0 | 0.0 | 0.00 | 0.08 | 0.08 | 57 | 1014.3 |